DELTA 1 DEB

Satellite information

Favourite Embed

Satellite Type and Status

DEBRISIN ORBIT

Key statistics

Satellite DELTA 1 DEB at a glance.

Uptime

20981

Days in orbit

Revolutions

≈ 10.0

Per day

Orbit

HEO

HEO

Inclination

120.6

Latest

Satellite identification and parameters

Extended collection of information and parameters for DELTA 1 DEB.

Object identification

Identified? True

Debris? True

Object name: DELTA 1 DEB

International designator: 1968-055E

Object number (NORAD): 25270

Object ID (CCSDS): 25270

Country: UNITED STATES OF AMERICA (US)

Current information (Y/N): Y

RCS size: SMALL

Orbital parameters

Period: 143.454 minutes

Inclination: 120.5701 deg

SMA: 9077.568 km

Apoapsis: 4715.981 km

Periapsis: 682.886 km

RAAN: 72.0161 deg

Eccentricy: 0.22214621

Argument of periapsis: 229.5425 deg

Mean anomaly: 108.9723 deg

Mean motion: 10.03802986 rev/day

Mean motion (dot): 0.00003917 rev/day2

B* drag term: 0.0072627499 1/REarth

Two-line elements (TLE)

Creation date: Dec. 8, 2025, 11:02 a.m.

Reference frame: TEME

Reference center: EARTH

Epoch: Dec. 7, 2025, 11:37 p.m. UTC

TLE line 0: 0 DELTA 1 DEB

TLE line 1: 1 25270U 68055E 25341.98444934 .00003917 00000-0 72627-2 0 9996

TLE line 2: 2 25270 120.5701 72.0161 2221462 229.5425 108.9723 10.03802986425704

Live tracking on map

Real-time ground track for satellite DELTA 1 DEB.

In-orbit conjunctions

A list of the most updated potential collisions computed for object DELTA 1 DEB.

Target Orbit TCA Probability of collision Miss distance Type
COSMOS 2213 LEO 2024-10-19 20:35:06 0.0001031178 979.0 (m) PAYLOAD

Associated space launch

The RAE A (Radio Astronomy Explorer A) spacecraft measured the intensity of celestial radio sources, particularly the sun, as a function of time, direction, and frequency (0.2 to 20 MHz).

DELTA 1 DEB was lifted into orbit during the mission ‘Thor Delta J | RAE 1’, on board a Thor Delta J space rocket.

The launch took place on July 4, 1968, 5:26 p.m. from Space Launch Complex 2E.

For more information about the launch, click the button.

Launch to space Thor Delta J | RAE 1
Thor Delta J | RAE 1

Agency: N/A

Status: Launch Successful

Launch date: July 4, 1968, 5:26 p.m. UTC

Rocket: Thor Delta J

Launch pad: Space Launch Complex 2E

Location: Vandenberg SFB, CA, USA

...

Latest news about this satellite

There are no fresh news available about this satellite. Check back as we update our databases every day.


Newsletter sign-up

Weekly statistics, charts and insights to help you stay on top of the space industry.